Toronto, Ontario

11:59 PM EDT on September 21, 2017 (GMT -0400)
Toronto

Weather History for CYTZ - December, 2012

Change the Weather History Date:

Tuesday, December 25, 2012

  Actual Average Record
Temperature  
Mean Temperature 32 °F -  
Max Temperature 34 °F 30 °F 48 °F (2015)
Min Temperature 30 °F 19 °F 3 °F (2000)
Degree Days  
Heating Degree Days 33    
Moisture  
Dew Point 25 °F    
Average Humidity 76    
Maximum Humidity 93    
Minimum Humidity 49    
Precipitation  
Precipitation 0.00 in 0.07 in - ()
Sea Level Pressure  
Sea Level Pressure 30.08 in    
Wind  
Wind Speed 9 mph ()    
Max Wind Speed 15 mph    
Max Gust Speed 18 mph    
Visibility 6.8 miles    
Events Rain , Snow    
Averages and records for this station are not official NWS values.
T = Trace of Precipitation, MM = Missing Value Source: Averaged Metar Reports

Daily Weather History Graph

Daily Weather History Graph

Search for Another Location

Airport or City:

Trip Planner

Search our weather history database for the weather conditions in past years. The results will help you decide how hot, cold, wet, or windy it might be!

Date:

Astronomy

Dec. 25, 2012 Rise Set
Actual Time 7:49 AM EST 4:46 PM EST
Civil Twilight 7:16 AM EST 5:19 PM EST
Nautical Twilight 6:40 AM EST 5:55 PM EST
Astronomical Twilight 6:05 AM EST 6:30 PM EST
Moon 2:54 PM EST (12/25) 5:19 AM EST (12/25)
Length of Visible Light 10h 02m
Length of Day
8h 56m
Waxing Gibbous, 93% of the Moon is Illuminated
Dec 25
Waxing Gibbous
Dec 28
Full
Jan 4
Last Quarter
Jan 11
New
Jan 18
First Quarter

Hourly Weather History & Observations

Time (EST) Temp. Windchill Dew Point Humidity Pressure Visibility Wind Dir Wind Speed Gust Speed Precip Events Conditions
12:00 AM 33.8 °F 24.8 °F 26.6 °F 75% 29.94 in 9.0 mi NE 12.7 mph - N/A   Overcast
12:02 AM 33.8 °F 25.8 °F 26.6 °F 75% 29.94 in 9.0 mi NNE 10.4 mph 17.3 mph N/A Rain Light Rain
12:06 AM 33.8 °F 24.8 °F 26.6 °F 75% 29.94 in 9.0 mi NE 12.7 mph - N/A Rain Light Rain
12:10 AM 33.8 °F 25.3 °F 26.6 °F 75% 29.94 in 9.0 mi NNE 11.5 mph 17.3 mph N/A Rain , Snow Light Snow
12:11 AM 33.8 °F 24.8 °F 26.6 °F 75% 29.94 in 9.0 mi NNE 12.7 mph - N/A Snow Light Snow
12:15 AM 33.8 °F 24.8 °F 26.6 °F 75% 29.94 in 9.0 mi NNE 12.7 mph - N/A Snow Light Snow
12:19 AM 33.8 °F 25.3 °F 26.6 °F 75% 29.94 in 5.0 mi NNE 11.5 mph - N/A Snow Light Snow
12:34 AM 33.8 °F 26.4 °F 26.6 °F 75% 29.94 in 6.0 mi NNE 9.2 mph - N/A Snow Light Snow
12:51 AM 32.0 °F 23.6 °F 26.6 °F 80% 29.95 in 4.0 mi NNE 10.4 mph - N/A Snow Light Snow
12:55 AM 32.0 °F 22.5 °F 26.6 °F 80% 29.95 in 2.2 mi NE 12.7 mph - N/A Snow Light Snow
12:57 AM 32.0 °F 22.5 °F 28.4 °F 87% 29.95 in 1.8 mi NE 12.7 mph - N/A Snow Light Snow
1:00 AM 31 °F - 28 °F 83% 29.96 in 1 mi NE 11.5 mph - - Snow Light Snow
1:00 AM 32.0 °F 23.0 °F 28.4 °F 87% 29.96 in 1.5 mi NE 11.5 mph 17.3 mph N/A Snow Light Snow
1:08 AM 32.0 °F 24.8 °F 26.6 °F 80% 29.96 in 2.0 mi NE 8.1 mph 18.4 mph N/A Snow Light Snow
1:13 AM 32.0 °F 24.2 °F 26.6 °F 80% 29.96 in 3.0 mi NE 9.2 mph 18.4 mph N/A Snow Light Snow
1:20 AM 32.0 °F 24.8 °F 26.6 °F 80% 29.96 in 6.0 mi NNE 8.1 mph - N/A Snow Light Snow
1:40 AM 32.0 °F 21.6 °F 26.6 °F 80% 29.96 in 5.0 mi NE 15.0 mph - N/A Snow Light Snow
2:00 AM 32.0 °F 23.0 °F 26.6 °F 80% 29.97 in 3.0 mi NNE 11.5 mph 17.3 mph N/A Snow Light Snow
2:03 AM 32.0 °F 23.6 °F 26.6 °F 80% 29.98 in 2.2 mi NNE 10.4 mph - N/A Snow Light Snow
2:07 AM 32.0 °F 23.6 °F 28.4 °F 87% 29.98 in 1.8 mi NNE 10.4 mph - N/A Snow Light Snow
2:25 AM 30.2 °F 21.3 °F 28.4 °F 93% 29.99 in 2.0 mi NNE 10.4 mph - N/A Snow Light Snow
2:30 AM 30.2 °F 21.9 °F 28.4 °F 93% 29.99 in 3.0 mi NNE 9.2 mph - N/A Snow Light Snow
2:32 AM 30.2 °F 20.2 °F 26.6 °F 86% 29.99 in 3.0 mi NNE 12.7 mph - N/A Snow Light Snow
2:39 AM 30.2 °F 21.3 °F 26.6 °F 86% 30.01 in 6.0 mi NNE 10.4 mph - N/A Snow Light Snow
2:44 AM 30.2 °F 21.3 °F 26.6 °F 86% 30.00 in 5.0 mi NNE 10.4 mph - N/A Snow Light Snow
2:55 AM 30.2 °F 22.6 °F 28.4 °F 93% 30.01 in 2.5 mi NNE 8.1 mph 18.4 mph N/A Snow Light Snow
3:00 AM 30.2 °F 21.9 °F 26.6 °F 86% 30.01 in 2.5 mi NNE 9.2 mph - N/A Snow Light Snow
3:04 AM 30.2 °F 21.3 °F 26.6 °F 86% 30.01 in 3.0 mi NNE 10.4 mph - N/A Snow Light Snow
3:10 AM 30.2 °F 21.9 °F 26.6 °F 86% 30.01 in 6.0 mi NE 9.2 mph - N/A Snow Light Snow
3:13 AM 30.2 °F 21.9 °F 26.6 °F 86% 30.02 in 8.0 mi NE 9.2 mph - N/A Snow Light Snow
3:20 AM 30.2 °F 22.6 °F 26.6 °F 86% 30.02 in 9.0 mi NE 8.1 mph - N/A Snow Light Snow
3:30 AM 30.2 °F 22.6 °F 26.6 °F 86% 30.02 in 9.0 mi North 8.1 mph - N/A Snow Light Snow
3:36 AM 30.2 °F 25.4 °F 26.6 °F 86% 30.03 in 9.0 mi North 4.6 mph - N/A Snow Light Snow
3:46 AM 32.0 °F 24.2 °F 26.6 °F 80% 30.03 in 9.0 mi NE 9.2 mph - N/A   Overcast
4:00 AM 32.0 °F 25.6 °F 26.6 °F 80% 30.04 in 9.0 mi NNE 6.9 mph - N/A   Overcast
4:06 AM 32.0 °F 23.6 °F 24.8 °F 75% 30.04 in 9.0 mi NNE 10.4 mph - N/A   Overcast
4:18 AM 32.0 °F 27.5 °F 24.8 °F 75% 30.04 in 9.0 mi North 4.6 mph - N/A   Overcast
5:00 AM 30.2 °F 22.6 °F 23.0 °F 75% 30.06 in 9.0 mi NE 8.1 mph - N/A   Overcast
6:00 AM 30.2 °F 26.7 °F 23.0 °F 75% 30.11 in 9.0 mi NNE 3.5 mph - N/A   Overcast
7:00 AM 32 °F - 23 °F 57% 30.14 in 10 mi NNE 3.5 mph - -   Overcast
7:00 AM 32.0 °F - 23.0 °F 69% 30.14 in 9.0 mi Variable 2.3 mph - N/A   Overcast
8:00 AM 32.0 °F - 23.0 °F 69% 30.17 in 9.0 mi Calm Calm - N/A   Overcast
9:00 AM 32.0 °F 27.5 °F 23.0 °F 69% 30.19 in 9.0 mi East 4.6 mph - N/A   Overcast
10:00 AM 32.0 °F 27.5 °F 24.8 °F 75% 30.24 in 9.0 mi ENE 4.6 mph - N/A   Overcast
11:00 AM 32.0 °F 25.6 °F 24.8 °F 75% 30.24 in 9.0 mi ENE 6.9 mph - N/A   Overcast
12:00 PM 33.8 °F - 24.8 °F 70% 30.23 in 9.0 mi Variable 2.3 mph - N/A   Overcast
1:00 PM 34 °F - 24 °F 54% 30.22 in 10 mi NNW 2.3 mph - -   Overcast
1:00 PM 33.8 °F - 23.0 °F 65% 30.22 in 9.0 mi Variable 2.3 mph - N/A   Overcast
2:00 PM 33.8 °F 28.6 °F 24.8 °F 70% 30.25 in 9.0 mi SSW 5.8 mph - N/A   Overcast
3:00 PM 33.8 °F 29.6 °F 24.8 °F 70% 30.25 in 9.0 mi SSE 4.6 mph - N/A   Overcast
4:00 PM 33.8 °F 29.6 °F 26.6 °F 75% 30.27 in 9.0 mi SW 4.6 mph - N/A   Overcast
5:00 PM 33.8 °F 26.4 °F 24.8 °F 70% 30.29 in 9.0 mi NW 9.2 mph - N/A   Overcast
6:00 PM 33.8 °F 27.7 °F 21.2 °F 60% 30.30 in 9.0 mi NNW 6.9 mph - N/A   Overcast
7:00 PM 34 °F - 22 °F 49% 30.33 in 10 mi NE 6.9 mph - -   Overcast
7:00 PM 33.8 °F 27.7 °F 21.2 °F 60% 30.33 in 9.0 mi NE 6.9 mph - N/A   Overcast
8:00 PM 33.8 °F 27.0 °F 21.2 °F 60% 30.35 in 9.0 mi ENE 8.1 mph - N/A   Overcast
9:00 PM 33.8 °F 25.8 °F 19.4 °F 56% 30.35 in 9.0 mi North 10.4 mph - N/A   Overcast
10:00 PM 33.8 °F 26.4 °F 19.4 °F 56% 30.35 in 9.0 mi NE 9.2 mph - N/A   Overcast
11:00 PM 33.8 °F 25.3 °F 19.4 °F 56% 30.34 in 9.0 mi North 11.5 mph - N/A   Overcast